GLONASS-K 2 (40315 NORAD) Tracking and Keplerian Element Data

This shows tracking and keplerian element data for the satellite.

Feedback or suggestion? Click here.




ElementValue
Catalog40315
NameGLONASS-K 2
Epoch Orbit2817
Epoch Day195.55433943
Epoch Year2018
RAAN291.5689
Inclination64.2076
Eccentricity0.0016416
Argument of Perigee205.4702
Mean Anonmoly240.7645
Mean Motion2.13098767
Decay Rate-1E-07
L11 40315U 14075A 18195.55433943 -.00000010 00000-0 00000-0 0 9992
L22 40315 64.2076 291.5689 0016416 205.4702 240.7645 2.13098767 28177

Live tracking and technical data element details for GLONASS-K 2 (NORAD 40315). GLONASS-K 2 can be tracked NOW for your location showing map with azimuth and elevation plus other details from your city location.

Track the satellite on the map from your city or location and see movement details for azimuth, elevation, latitude, longitude, range, height, and movement on the map or in text.







IsCatalogInMostPopularTable: catalog: 40315, numindb: 51
Update: records affected: 1



GetName: 40315 GLONASS-K 2

Hit Count: updated at: Sun, 15 Jul 2018 23:18:08 GMT